Flag for Canada Weather past 2 weeks in Kenora, Ontario, Canada

Now
57 °F

Sunny.


Feels Like: 54 °F
Forecast: 41 / 69 °F
Wind: 13 mph from Southwest

Location: Kenora

Current Time: May 5, 2015 at 10:25:53 AM

Latest Report: May 5, 2015 at 10:00 AM


Visibility: 15 mi

Pressure: 30.24 "Hg

Humidity: 39%

Dew point: 32 °F

Location of KenoraLocation

Historic Weather in Kenora — Graph

°F

Kenora temperature yesterday

Maximum temperature yesterday: 57 °F (at 1:00 PM)
Minimum temperature yesterday: 36 °F (at 5:00 AM)
Average temperature yesterday: 48 °F

Past Weeks' High & Low Weather Summary

 TemperatureHumidityPressure
High79 °F (May 2, 4:00 PM)100% (Apr 20, 1:00 PM)30.30 "Hg (Apr 20, 1:00 PM)
Low21 °F (Apr 22, 5:00 AM)13% (Apr 26, 3:00 PM)29.40 "Hg (Apr 20, 2:00 PM)
Average46 °F55%29.98 "Hg
* Reported Apr 20 9:00 AM — May 5 9:00 AM, Kenora, Weather by CustomWeather, © 2015

Note: Actual official high and low records may vary slightly from our data, if they occured in-between our weather recording intervals... More about our weather records

Advertising

Kenora weather history for previous 24 hours

 ConditionsComfort  
Time TempWeatherWind HumidityBarometerVisibility
9:00 AM
Tue, May 5
55 °FSunny.12 mph41%30.24 "Hg15 mi
8:00 AM50 °FPassing clouds.7 mph54%30.23 "Hg15 mi
7:00 AM46 °FPassing clouds.7 mph57%30.22 "Hg15 mi
6:00 AM46 °FSunny.8 mph57%30.22 "Hg15 mi
5:00 AM45 °FClear.7 mph61%30.22 "Hg15 mi
4:00 AM46 °FClear.8 mph57%30.22 "Hg15 mi
3:00 AM45 °FClear.7 mph66%30.22 "Hg15 mi
2:00 AM46 °FClear.6 mph62%30.22 "Hg15 mi
1:00 AM48 °FClear.5 mph54%30.22 "Hg15 mi
12:00 AM52 °FClear.5 mph47%30.22 "Hg15 mi
11:00 PM
Mon, May 4
52 °FClear.5 mph47%30.23 "Hg15 mi
10:00 PM48 °FPassing clouds.5 mph54%30.24 "Hg15 mi
9:00 PM54 °FPassing clouds.2 mph44%30.22 "Hg15 mi
8:00 PM55 °FPassing clouds.3 mph44%30.21 "Hg15 mi
7:00 PM57 °FPartly sunny.3 mph39%30.21 "Hg15 mi
6:00 PM57 °FPartly sunny.5 mph44%30.22 "Hg15 mi
5:00 PM55 °FScattered showers. Partly sunny.14 mph47%30.21 "Hg15 mi
4:00 PM55 °FScattered showers. Partly sunny.5 mph51%30.22 "Hg15 mi
3:51 PM52 °FScattered showers. Partly sunny.3 mph62%30.23 "Hg15 mi
3:00 PM55 °FSprinkles. Partly sunny.12 mph41%30.22 "Hg15 mi
2:55 PM57 °FSprinkles. Partly sunny.13 mph36%30.22 "Hg15 mi
2:00 PM55 °FPartly sunny.10 mph41%30.23 "Hg15 mi
1:00 PM57 °FScattered clouds.8 mph41%30.24 "Hg15 mi
12:00 PM55 °FScattered clouds.12 mph38%30.24 "Hg15 mi
11:00 AM52 °FScattered clouds.6 mph47%30.24 "Hg15 mi
10:00 AM48 °FPassing clouds.3 mph62%30.23 "Hg15 mi
Weather by CustomWeather, © 2015

See weather overviewHow to use our weather pages